When you browse on this site, cookies collect data to enhance your experience and personalize the content and advertising you see.
Visit our Privacy Policy to learn more. By continuing to use the site, you agree to this use of cookies and data.
  • In Spain
  • List of Countries
  • For 7 days
  • Water Temperature
  • Satellite Maps
  • Weather Map
  • Weather Widgets
  • user-avatar
    Login

    Hourly Weather Jakubowo

    Today, 16 January, Wednesday

    Time Temperature Precipitation Wind Pressure Humidity
    00:00 +2°C° 0 mm 8 mps 742 mmHg 84%
    01:00 +2°C° 0 mm 6 mps 743 mmHg 82%
    02:00 +2°C° 0.1 mm 5 mps 744 mmHg 84%
    03:00 +2°C° 0.1 mm 5 mps 744 mmHg 86%
    04:00 +2°C° 0.1 mm 5 mps 745 mmHg 88%
    05:00 +3°C° 0.3 mm 4 mps 745 mmHg 90%
    06:00 +3°C° 0.3 mm 4 mps 745 mmHg 91%
    07:00 +2°C° 0.3 mm 3 mps 745 mmHg 93%
    08:00 +3°C° 0.3 mm 3 mps 746 mmHg 93%
    09:00 +3°C° 0.3 mm 4 mps 746 mmHg 94%
    10:00 +3°C° 0.3 mm 4 mps 746 mmHg 94%
    11:00 +3°C° 0 mm 5 mps 746 mmHg 90%
    12:00 +5°C° 0 mm 5 mps 746 mmHg 85%
    13:00 +4°C° 0 mm 6 mps 746 mmHg 80%
    14:00 +4°C° 0 mm 6 mps 746 mmHg 82%
    15:00 +4°C° 0 mm 6 mps 746 mmHg 84%
    16:00 +4°C° 0 mm 6 mps 746 mmHg 86%
    17:00 +4°C° 0 mm 6 mps 746 mmHg 86%
    18:00 +3°C° 0 mm 6 mps 746 mmHg 86%
    19:00 +3°C° 0 mm 6 mps 746 mmHg 86%
    20:00 +3°C° 0 mm 6 mps 745 mmHg 85%
    21:00 +3°C° 0 mm 6 mps 745 mmHg 84%
    22:00 +3°C° 0 mm 6 mps 745 mmHg 83%
    23:00 +3°C° 0 mm 6 mps 744 mmHg 83%

    Tomorrow, 17 January, Thursday

    Time Temperature Precipitation Wind Pressure Humidity
    00:00 +2°C° 0 mm 6 mps 743 mmHg 82%
    01:00 +2°C° 0 mm 6 mps 743 mmHg 81%
    02:00 +2°C° 0 mm 6 mps 742 mmHg 79%
    03:00 +2°C° 0 mm 7 mps 742 mmHg 77%
    04:00 0°C° 0 mm 7 mps 741 mmHg 75%
    05:00 0°C° 0 mm 7 mps 741 mmHg 74%
    06:00 0°C° 0 mm 8 mps 741 mmHg 73%
    07:00 0°C° 0 mm 8 mps 740 mmHg 71%
    08:00 +1°C° 0 mm 8 mps 741 mmHg 73%
    09:00 +1°C° 0 mm 8 mps 741 mmHg 74%
    10:00 +2°C° 0 mm 9 mps 741 mmHg 75%
    11:00 +2°C° 0 mm 8 mps 741 mmHg 71%
    12:00 +4°C° 0 mm 8 mps 741 mmHg 67%
    13:00 +4°C° 0 mm 8 mps 741 mmHg 63%
    14:00 +4°C° 0 mm 7 mps 741 mmHg 65%
    15:00 +3°C° 0 mm 7 mps 741 mmHg 67%
    16:00 +3°C° 0 mm 6 mps 741 mmHg 69%
    17:00 +3°C° 0.4 mm 6 mps 741 mmHg 71%
    18:00 +2°C° 0.4 mm 5 mps 740 mmHg 73%
    19:00 +2°C° 0.4 mm 5 mps 740 mmHg 76%
    20:00 +2°C° 0.9 mm 6 mps 741 mmHg 73%
    21:00 0°C° 0.9 mm 7 mps 741 mmHg 69%
    22:00 0°C° 0.9 mm 8 mps 741 mmHg 66%
    23:00 -1°C° 0 mm 8 mps 742 mmHg 66%

    Day after tomorrow, 18 January, Friday

    Time Temperature Precipitation Wind Pressure Humidity
    00:00 -1°C° 0 mm 8 mps 742 mmHg 65%
    01:00 -2°C° 0 mm 8 mps 743 mmHg 65%
    02:00 -2°C° 0 mm 8 mps 743 mmHg 68%
    03:00 -2°C° 0 mm 7 mps 743 mmHg 71%
    04:00 -2°C° 0 mm 7 mps 743 mmHg 74%
    05:00 -2°C° 0 mm 7 mps 744 mmHg 75%
    06:00 -3°C° 0 mm 7 mps 745 mmHg 77%
    07:00 -3°C° 0 mm 7 mps 746 mmHg 78%
    08:00 -2°C° 0.2 mm 6 mps 747 mmHg 77%
    09:00 -2°C° 0.2 mm 6 mps 748 mmHg 77%
    10:00 -1°C° 0.2 mm 5 mps 750 mmHg 76%
    11:00 -1°C° 0 mm 5 mps 751 mmHg 70%
    12:00 -2°C° 0 mm 6 mps 752 mmHg 65%
    13:00 -2°C° 0 mm 6 mps 753 mmHg 59%
    14:00 -1°C° 0 mm 5 mps 753 mmHg 62%
    15:00 -2°C° 0 mm 4 mps 754 mmHg 64%
    16:00 -1°C° 0 mm 3 mps 755 mmHg 67%
    17:00 -2°C° 0 mm 3 mps 755 mmHg 69%
    18:00 -2°C° 0 mm 3 mps 756 mmHg 71%
    19:00 -2°C° 0 mm 3 mps 756 mmHg 74%
    20:00 -2°C° 0 mm 3 mps 756 mmHg 76%
    21:00 -2°C° 0 mm 3 mps 757 mmHg 79%
    22:00 -2°C° 0 mm 3 mps 757 mmHg 82%
    23:00 -2°C° 0 mm 3 mps 757 mmHg 82%

    19 January, Saturday

    Time Temperature Precipitation Wind Pressure Humidity
    00:00 -3°C° 0 mm 4 mps 757 mmHg 82%
    01:00 -3°C° 0 mm 4 mps 757 mmHg 82%
    02:00 -3°C° 0 mm 4 mps 757 mmHg 82%
    03:00 -3°C° 0 mm 4 mps 757 mmHg 81%
    04:00 -3°C° 0 mm 4 mps 757 mmHg 80%
    05:00 -3°C° 0 mm 4 mps 757 mmHg 80%
    06:00 -3°C° 0 mm 4 mps 757 mmHg 80%
    07:00 -3°C° 0 mm 4 mps 757 mmHg 80%
    08:00 -2°C° 0 mm 3 mps 757 mmHg 79%
    09:00 -2°C° 0 mm 3 mps 757 mmHg 78%
    10:00 -1°C° 0 mm 3 mps 758 mmHg 76%
    11:00 -1°C° 0 mm 3 mps 758 mmHg 75%
    12:00 0°C° 0 mm 3 mps 757 mmHg 73%
    13:00 +1°C° 0 mm 3 mps 757 mmHg 71%
    14:00 +1°C° 0 mm 2 mps 757 mmHg 74%
    15:00 -1°C° 0 mm 2 mps 757 mmHg 78%
    16:00 -1°C° 0 mm 2 mps 757 mmHg 81%
    17:00 -2°C° 0 mm 2 mps 757 mmHg 82%
    18:00 -2°C° 0 mm 2 mps 757 mmHg 83%
    19:00 -2°C° 0 mm 2 mps 757 mmHg 83%
    20:00 -2°C° 0 mm 2 mps 757 mmHg 84%
    21:00 -2°C° 0 mm 2 mps 757 mmHg 84%
    22:00 -2°C° 0 mm 2 mps 757 mmHg 84%
    23:00 -2°C° 0 mm 2 mps 757 mmHg 84%

    20 January, Sunday

    Time Temperature Precipitation Wind Pressure Humidity
    00:00 -2°C° 0 mm 2 mps 757 mmHg 84%
    01:00 -3°C° 0 mm 2 mps 757 mmHg 83%
    02:00 -3°C° 0 mm 2 mps 757 mmHg 84%
    03:00 -3°C° 0 mm 2 mps 757 mmHg 85%
    04:00 -3°C° 0 mm 2 mps 757 mmHg 85%
    05:00 -3°C° 0 mm 2 mps 757 mmHg 86%
    06:00 -3°C° 0 mm 2 mps 757 mmHg 87%
    07:00 -3°C° 0 mm 2 mps 757 mmHg 88%
    08:00 -2°C° 0 mm 2 mps 757 mmHg 84%
    09:00 -2°C° 0 mm 3 mps 758 mmHg 81%
    10:00 -1°C° 0 mm 3 mps 758 mmHg 78%
    11:00 -1°C° 0 mm 3 mps 758 mmHg 75%
    12:00 -1°C° 0 mm 4 mps 758 mmHg 72%
    13:00 0°C° 0 mm 4 mps 758 mmHg 69%
    14:00 -1°C° 0 mm 4 mps 758 mmHg 73%
    15:00 0°C° 0 mm 3 mps 758 mmHg 77%
    16:00 -1°C° 0 mm 3 mps 758 mmHg 81%
    17:00 -2°C° 0 mm 3 mps 759 mmHg 80%
    18:00 -2°C° 0 mm 3 mps 759 mmHg 79%
    19:00 -4°C° 0 mm 3 mps 760 mmHg 78%
    20:00 -4°C° 0 mm 3 mps 760 mmHg 77%
    21:00 -4°C° 0 mm 3 mps 761 mmHg 77%
    22:00 -4°C° 0 mm 3 mps 761 mmHg 76%
    23:00 -5°C° 0 mm 3 mps 762 mmHg 75%

    21 January, Monday

    Time Temperature Precipitation Wind Pressure Humidity
    00:00 -4°C° 0 mm 2 mps 762 mmHg 74%
    01:00 -4°C° 0 mm 2 mps 763 mmHg 74%
    02:00 -4°C° 0 mm 2 mps 763 mmHg 74%
    03:00 -4°C° 0 mm 2 mps 763 mmHg 75%
    04:00 -4°C° 0 mm 2 mps 763 mmHg 75%
    05:00 -4°C° 0 mm 2 mps 764 mmHg 75%
    06:00 -4°C° 0 mm 2 mps 764 mmHg 75%
    07:00 -4°C° 0 mm 2 mps 764 mmHg 75%
    08:00 -4°C° 0 mm 2 mps 765 mmHg 72%
    09:00 -3°C° 0 mm 2 mps 765 mmHg 69%
    10:00 -3°C° 0 mm 2 mps 766 mmHg 66%
    11:00 -2°C° 0 mm 2 mps 766 mmHg 63%
    12:00 -2°C° 0 mm 2 mps 766 mmHg 60%
    13:00 -1°C° 0 mm 2 mps 766 mmHg 57%
    14:00 -2°C° 0 mm 2 mps 766 mmHg 59%
    15:00 -2°C° 0 mm 2 mps 766 mmHg 62%
    16:00 -3°C° 0 mm 2 mps 766 mmHg 64%
    17:00 -3°C° 0 mm 2 mps 766 mmHg 65%
    18:00 -3°C° 0 mm 2 mps 766 mmHg 66%
    19:00 -4°C° 0 mm 2 mps 766 mmHg 67%
    20:00 -4°C° 0 mm 2 mps 766 mmHg 68%
    21:00 -4°C° 0 mm 2 mps 765 mmHg 68%
    22:00 -5°C° 0 mm 3 mps 765 mmHg 69%
    23:00 -5°C° 0 mm 3 mps 765 mmHg 69%
    Show more